This is the latest recevied weather packets stored in our database for station/object W4FXD. If no packets are shown the sender has not sent any weather packets the latest 10 day(s).
| Time | Temp. | Humidity | Pressure | Rain* | Wind** | Luminosity | Snow |
|---|---|---|---|---|---|---|---|
| 1777898728 | 12.22° C | 76% | 1018.2 hPa | 0 mm | - | 211 W/m² | - |
| 1777898426 | 11.67° C | 81% | 1018.3 hPa | 0 mm | - | 186 W/m² | - |
| 1777898124 | 11.67° C | 82% | 1018.1 hPa | 0 mm | - | 169 W/m² | - |
| 1777897820 | 10.56° C | 83% | 1018.1 hPa | 0 mm | - | 172 W/m² | - |
| 1777897516 | 10° C | 86% | 1017.9 hPa | 0 mm | - | 158 W/m² | - |
| 1777897212 | 10° C | 87% | 1017.9 hPa | 0 mm | - | 73 W/m² | - |
| 1777896908 | 9.44° C | 87% | 1017.9 hPa | 0 mm | - | 85 W/m² | - |
| 1777896606 | 9.44° C | 88% | 1018.1 hPa | 0 mm | - | 58 W/m² | - |
| 1777896302 | 8.89° C | 88% | 1017.7 hPa | 0 mm | - | 59 W/m² | - |
| 1777896001 | 8.89° C | 89% | 1017.7 hPa | 0 mm | - | 50 W/m² | - |
| 1777895698 | 8.89° C | 89% | 1017.5 hPa | 0 mm | - | 43 W/m² | - |
| 1777895395 | 8.89° C | 89% | 1017.6 hPa | 0 mm | - | 41 W/m² | - |
| 1777895093 | 8.33° C | 89% | 1017.8 hPa | 0 mm | - | 39 W/m² | - |
| 1777894789 | 8.33° C | 90% | 1017.7 hPa | 0 mm | - | 36 W/m² | - |
| 1777894486 | 8.33° C | 89% | 1017.5 hPa | 0 mm | - | 32 W/m² | - |
| 1777894184 | 8.33° C | 89% | 1017.5 hPa | 0 mm | - | 29 W/m² | - |
| 1777893881 | 7.78° C | 90% | 1017.3 hPa | 0 mm | - | 25 W/m² | - |
| 1777893577 | 7.78° C | 90% | 1017.4 hPa | 0 mm | - | 22 W/m² | - |
| 1777893273 | 7.78° C | 91% | 1017.4 hPa | 0 mm | - | 18 W/m² | - |
| 1777892970 | 7.78° C | 91% | 1017.3 hPa | 0 mm | - | 15 W/m² | - |
| 1777892667 | 7.78° C | 91% | 1017.3 hPa | 0 mm | - | 11 W/m² | - |
| 1777892362 | 7.78° C | 91% | 1017.2 hPa | 0 mm | - | 9 W/m² | - |
| 1777892059 | 7.78° C | 90% | 1017.2 hPa | 0 mm | - | 6 W/m² | - |
| 1777891756 | 7.78° C | 90% | 1017 hPa | 0 mm | - | 3 W/m² | - |
| 1777891453 | 7.22° C | 90% | 1017 hPa | 0 mm | - | 1 W/m² | - |
* Rain latest hour (hover to see other rain measurements)
** Current wind speed in m/s (hover to see current wind gust speed)